| time (UTC) | temp C | wind direction | speed KPH | gust KPH | rain 1hr cm | rain 24hr cm | rain mn cm | humidity % | barometer mb |
| 20260504185505 | 24 | 221 | 3.2 | 11.3 | 0.00 | 0.00 | 0.00 | 36 | 1011.5 |
| 20260504184504 | 24 | 188 | 8.0 | 19.3 | 0.00 | 0.00 | 0.00 | 32 | 1011.6 |
| 20260504184004 | 24 | 225 | 4.8 | 16.1 | 0.00 | 0.00 | 0.00 | 34 | 1011.6 |
| 20260504183504 | 24 | 264 | 4.8 | 11.3 | 0.00 | 0.00 | 0.00 | 36 | 1011.6 |
| 20260504182505 | 23 | 297 | 8.0 | 16.1 | 0.00 | 0.00 | 0.00 | 34 | 1011.8 |
| 20260504181504 | 23 | 260 | 3.2 | 11.3 | 0.00 | 0.00 | 0.00 | 35 | 1011.9 |
| 20260504181005 | 23 | 308 | 6.4 | 14.5 | 0.00 | 0.00 | 0.00 | 35 | 1011.9 |
| 20260504180505 | 23 | 241 | 6.4 | 12.9 | 0.00 | 0.00 | 0.00 | 33 | 1012.0 |
| 20260504180004 | 23 | 273 | 6.4 | 24.1 | 0.00 | 0.00 | 0.00 | 34 | 1012.0 |
| 20260504175504 | 23 | 271 | 4.8 | 12.9 | 0.00 | 0.00 | 0.00 | 33 | 1012.1 |
| 20260504175004 | 23 | 218 | 6.4 | 16.1 | 0.00 | 0.00 | 0.00 | 33 | 1012.2 |
| 20260504173005 | 23 | 282 | 4.8 | 14.5 | 0.00 | 0.00 | 0.00 | 34 | 1012.4 |
| 20260504172004 | 23 | 292 | 6.4 | 12.9 | 0.00 | 0.00 | 0.00 | 34 | 1012.5 |
| 20260504171504 | 23 | 355 | 4.8 | 14.5 | 0.00 | 0.00 | 0.00 | 34 | 1012.6 |
| 20260504170504 | 23 | 215 | 4.8 | 12.9 | 0.00 | 0.00 | 0.00 | 38 | 1012.7 |
| 20260504140505 | 18 | 181 | 3.2 | 8.0 | 0.00 | 0.00 | 0.00 | 55 | 1014.1 |
| 20260504130504 | 17 | 148 | 3.2 | 8.0 | 0.00 | 0.00 | 0.00 | 60 | 1014.9 |
| 20260504110505 | 11 | 136 | 1.6 | 4.8 | 0.00 | 0.00 | 0.00 | 79 | 1015.6 |
| 20260504081004 | 11 | 174 | 3.2 | 4.8 | 0.00 | 0.00 | 0.00 | 77 | 1015.9 |
| 20260504080504 | 11 | 172 | 3.2 | 8.0 | 0.00 | 0.00 | 0.00 | 77 | 1015.8 |
| 20260504050505 | 10 | 175 | 3.2 | 4.8 | 0.00 | 0.00 | 0.00 | 62 | 1015.8 |
| 20260504045004 | 9 | 147 | 1.6 | 4.8 | 0.00 | 0.00 | 0.00 | 64 | 1015.7 |
| 20260504044504 | 9 | 109 | 1.6 | 3.2 | 0.00 | 0.00 | 0.00 | 64 | 1015.7 |
| 20260504044005 | 9 | 109 | 1.6 | 3.2 | 0.00 | 0.00 | 0.00 | 64 | 1015.7 |
| 20260504043004 | 8 | 144 | 0.0 | 3.2 | 0.00 | 0.00 | 0.00 | 65 | 1015.7 |
| 20260504042504 | 8 | 132 | 0.0 | 3.2 | 0.00 | 0.00 | 0.00 | 66 | 1015.6 |
| 20260504042004 | 8 | 138 | 0.0 | 3.2 | 0.00 | 0.00 | 0.00 | 66 | 1015.6 |
| 20260504041504 | 8 | 138 | 0.0 | 3.2 | 0.00 | 0.00 | 0.00 | 66 | 1015.5 |
| 20260504041005 | 8 | 138 | 0.0 | 3.2 | 0.00 | 0.00 | 0.00 | 66 | 1015.5 |
| 20260504040004 | 8 | 138 | 0.0 | 3.2 | 0.00 | 0.00 | 0.00 | 68 | 1015.3 |
| 20260504035505 | 8 | 151 | 0.0 | 1.6 | 0.00 | 0.00 | 0.00 | 68 | 1015.3 |
| 20260504035005 | 8 | 155 | 0.0 | 1.6 | 0.00 | 0.00 | 0.00 | 67 | 1015.3 |
| 20260504034504 | 8 | 155 | 1.6 | 3.2 | 0.00 | 0.00 | 0.00 | 68 | 1015.2 |
| 20260504033004 | 8 | 194 | 0.0 | 1.6 | 0.00 | 0.00 | 0.00 | 68 | 1015.1 |
| 20260504032505 | 8 | 194 | 0.0 | 1.6 | 0.00 | 0.00 | 0.00 | 68 | 1015.2 |
| 20260504031004 | 8 | 275 | 0.0 | 1.6 | 0.00 | 0.00 | 0.00 | 67 | 1015.1 |
| 20260504030005 | 8 | 275 | 0.0 | 1.6 | 0.00 | 0.00 | 0.00 | 67 | 1015.1 |
| 20260504025505 | 8 | 275 | 0.0 | 1.6 | 0.00 | 0.00 | 0.00 | 66 | 1015.1 |
| 20260504025005 | 8 | 275 | 0.0 | 1.6 | 0.00 | 0.00 | 0.00 | 67 | 1015.1 |
| 20260504024504 | 8 | 275 | 0.0 | 3.2 | 0.00 | 0.00 | 0.00 | 67 | 1015.1 |
| 20260504024004 | 8 | 275 | 0.0 | 1.6 | 0.00 | 0.00 | 0.00 | 67 | 1015.1 |
| 20260504023504 | 8 | 275 | 1.6 | 3.2 | 0.00 | 0.00 | 0.00 | 68 | 1015.1 |
| 20260504020504 | 8 | 275 | 0.0 | 0.0 | 0.00 | 0.00 | 0.00 | 68 | 1015.1 |
| 20260504020005 | 8 | 275 | 0.0 | 0.0 | 0.00 | 0.00 | 0.00 | 68 | 1014.9 |
| 20260504015505 | 8 | 275 | 0.0 | 0.0 | 0.00 | 0.00 | 0.00 | 70 | 1014.9 |
| 20260504015005 | 8 | 275 | 0.0 | 0.0 | 0.00 | 0.00 | 0.00 | 67 | 1014.9 |
| 20260504014504 | 8 | 275 | 0.0 | 0.0 | 0.00 | 0.00 | 0.00 | 67 | 1014.9 |
| 20260504005504 | 10 | 275 | 0.0 | 1.6 | 0.00 | 0.00 | 0.00 | 62 | 1014.5 |
| 20260504001504 | 12 | 275 | 0.0 | 1.6 | 0.00 | 0.00 | 0.00 | 50 | 1013.9 |
| 20260503234504 | 13 | 275 | 1.6 | 3.2 | 0.00 | 0.00 | 0.00 | 42 | 1013.7 |
| 20260503233504 | 14 | 275 | 1.6 | 4.8 | 0.00 | 0.00 | 0.00 | 40 | 1013.7 |
| 20260503233005 | 14 | 286 | 3.2 | 4.8 | 0.00 | 0.00 | 0.00 | 40 | 1013.7 |
| 20260503232004 | 14 | 298 | 3.2 | 4.8 | 0.00 | 0.00 | 0.00 | 40 | 1013.7 |
| 20260503230505 | 15 | 248 | 3.2 | 4.8 | 0.00 | 0.00 | 0.00 | 39 | 1013.6 |
| 20260503230005 | 15 | 253 | 1.6 | 9.7 | 0.00 | 0.00 | 0.00 | 39 | 1013.5 |
| 20260503225004 | 15 | 303 | 3.2 | 12.9 | 0.00 | 0.00 | 0.00 | 37 | 1013.5 |
| 20260503224005 | 15 | 357 | 4.8 | 12.9 | 0.00 | 0.00 | 0.00 | 37 | 1013.4 |
| 20260503223504 | 15 | 297 | 4.8 | 19.3 | 0.00 | 0.00 | 0.00 | 37 | 1013.4 |
| 20260503223004 | 15 | 300 | 6.4 | 11.3 | 0.00 | 0.00 | 0.00 | 37 | 1013.4 |
| 20260503222504 | 15 | 296 | 9.7 | 19.3 | 0.00 | 0.00 | 0.00 | 36 | 1013.4 |
| 20260503222004 | 15 | 274 | 8.0 | 12.9 | 0.00 | 0.00 | 0.00 | 36 | 1013.4 |
| 20260503221504 | 15 | 325 | 4.8 | 19.3 | 0.00 | 0.00 | 0.00 | 37 | 1013.4 |
| 20260503220504 | 16 | 270 | 8.0 | 12.9 | 0.00 | 0.00 | 0.00 | 36 | 1013.4 |
| 20260503220004 | 16 | 293 | 4.8 | 14.5 | 0.00 | 0.00 | 0.00 | 37 | 1013.4 |
| 20260503214504 | 16 | 332 | 6.4 | 22.5 | 0.00 | 0.00 | 0.00 | 37 | 1013.4 |
| 20260503213505 | 16 | 321 | 9.7 | 22.5 | 0.00 | 0.00 | 0.00 | 35 | 1013.3 |
| 20260503210505 | 16 | 302 | 8.0 | 20.9 | 0.00 | 0.00 | 0.00 | 35 | 1013.2 |
| 20260503210005 | 16 | 289 | 9.7 | 19.3 | 0.00 | 0.00 | 0.00 | 36 | 1013.1 |
| 20260503205504 | 16 | 306 | 6.4 | 14.5 | 0.00 | 0.00 | 0.00 | 36 | 1013.1 |
| 20260503204505 | 16 | 302 | 9.7 | 19.3 | 0.00 | 0.00 | 0.00 | 36 | 1013.2 |
| 20260503203505 | 16 | 256 | 8.0 | 20.9 | 0.00 | 0.00 | 0.00 | 34 | 1013.1 |
| 20260503203004 | 16 | 287 | 8.0 | 19.3 | 0.00 | 0.00 | 0.00 | 35 | 1013.2 |
| 20260503202504 | 16 | 358 | 4.8 | 12.9 | 0.00 | 0.00 | 0.00 | 36 | 1013.2 |
| 20260503201005 | 16 | 269 | 9.7 | 20.9 | 0.00 | 0.00 | 0.00 | 35 | 1013.5 |
| 20260503200505 | 16 | 230 | 4.8 | 20.9 | 0.00 | 0.00 | 0.00 | 40 | 1013.4 |
| 20260503200005 | 16 | 282 | 8.0 | 19.3 | 0.00 | 0.00 | 0.00 | 36 | 1013.4 |
| 20260503195504 | 16 | 4 | 6.4 | 19.3 | 0.00 | 0.00 | 0.00 | 37 | 1013.4 |
| 20260503195005 | 16 | 337 | 6.4 | 19.3 | 0.00 | 0.00 | 0.00 | 40 | 1013.4 |
| 20260503194004 | 16 | 333 | 4.8 | 11.3 | 0.00 | 0.00 | 0.00 | 37 | 1013.3 |
| 20260503193504 | 16 | 339 | 8.0 | 19.3 | 0.00 | 0.00 | 0.00 | 37 | 1013.5 |
| 20260503191504 | 16 | 289 | 9.7 | 27.4 | 0.00 | 0.00 | 0.00 | 37 | 1013.5 |
| 20260503191005 | 15 | 277 | 9.7 | 20.9 | 0.00 | 0.00 | 0.00 | 38 | 1013.4 |